Peoria, IL

9:06 AM CST on November 13, 2019 (GMT -0600)
Greater Peoria Regional

Weather History for KPIA - September, 2019

Change the Weather History Date:

Monday, September 23, 2019

  Actual Average Record
Temperature  
Mean Temperature 66 °F 63 °F  
Max Temperature 75 °F 74 °F 93 °F (2017)
Min Temperature 57 °F 52 °F 29 °F (1995)
Degree Days  
Heating Degree Days 0 4  
Month to date heating degree days 0 45  
Since 1 July heating degree days 0 51  
Cooling Degree Days 2 2  
Month to date cooling degree days 187 104  
Year to date cooling degree days 1169 1011  
Growing Degree Days 16 (Base 50)    
Moisture  
Dew Point 57 °F    
Average Humidity 77    
Maximum Humidity 93    
Minimum Humidity 43    
Precipitation  
Precipitation 0.00 in 0.10 in 2.67 in (1961)
Month to date precipitation 3.68 2.47  
Year to date precipitation 37.20 27.42  
Snow  
Snow 0.00 in 0.00 in 0.00 in ()
Month to date snowfall 0.0 0.0  
Since 1 July snowfall 0.0 0.0  
Since 1 September snowfall 0.0 0.0  
Snow Depth 0.00 in    
Sea Level Pressure  
Sea Level Pressure 30.03 in    
Wind  
Wind Speed 4 mph ()    
Max Wind Speed 12 mph    
Max Gust Speed 17 mph    
Visibility 10.0 miles    
Events      
T = Trace of Precipitation, MM = Missing Value Source: Averaged Metar Reports

Daily Weather History Graph

Daily Weather History Graph

Search for Another Location

Airport or City:

Astronomy

Sep. 23, 2019 Rise Set
Actual Time 6:47 AM CDT 6:54 PM CDT
Civil Twilight 6:19 AM CDT 7:21 PM CDT
Nautical Twilight 5:47 AM CDT 7:53 PM CDT
Astronomical Twilight 5:15 AM CDT 8:26 PM CDT
Moon 12:28 AM CDT (9/23) 3:49 PM CDT (9/23)
Length of Visible Light 13h 02m
Length of Day
12h 07m
Waning Crescent, 33% of the Moon is Illuminated
Sep 23
Waning Crescent
Sep 28
New
Oct 5
First Quarter
Oct 13
Full
Oct 21
Last Quarter

Hourly Weather History & Observations

Time (CDT) Temp. Dew Point Humidity Pressure Visibility Wind Dir Wind Speed Gust Speed Precip Events Conditions
12:54 AM 68.0 °F 64.9 °F 90% 29.91 in 10.0 mi WNW 5.8 mph - N/A   Mostly Cloudy
1:11 AM 68.0 °F 64.9 °F 90% 29.93 in 10.0 mi WNW 5.8 mph - N/A   Overcast
1:54 AM 66.9 °F 64.0 °F 90% 29.93 in 10.0 mi NW 6.9 mph - N/A   Mostly Cloudy
2:09 AM 66.9 °F 63.0 °F 87% 29.94 in 10.0 mi WNW 8.1 mph - N/A   Mostly Cloudy
2:27 AM 64.9 °F 62.1 °F 90% 29.95 in 10.0 mi NW 6.9 mph - N/A   Scattered Clouds
2:54 AM 63.0 °F 60.1 °F 90% 29.95 in 10.0 mi NNW 6.9 mph - N/A   Mostly Cloudy
3:11 AM 63.0 °F 60.1 °F 90% 29.96 in 10.0 mi Variable 3.5 mph - N/A   Overcast
3:54 AM 62.1 °F 59.0 °F 90% 29.96 in 10.0 mi NW 4.6 mph - N/A   Scattered Clouds
4:54 AM 60.1 °F 57.0 °F 90% 29.98 in 10.0 mi NW 5.8 mph - N/A   Clear
5:54 AM 57.9 °F 55.9 °F 93% 30.01 in 10.0 mi North - - N/A   Clear
6:16 AM 57.9 °F 55.9 °F 93% 30.03 in 10.0 mi Variable 4.6 mph - N/A   Partly Cloudy
6:29 AM 57.9 °F 55.9 °F 93% 30.03 in 10.0 mi NW 3.5 mph - N/A   Mostly Cloudy
6:54 AM 57.9 °F 55.9 °F 93% 30.03 in 10.0 mi NW 4.6 mph - N/A   Overcast
7:54 AM 57.9 °F 55.9 °F 93% 30.06 in 10.0 mi Variable 3.5 mph - N/A   Overcast
8:54 AM 60.1 °F 55.9 °F 86% 30.09 in 10.0 mi Variable 3.5 mph - N/A   Overcast
9:30 AM 63.0 °F 57.0 °F 81% 30.10 in 10.0 mi Variable 3.5 mph - N/A   Scattered Clouds
9:54 AM 64.0 °F 55.9 °F 75% 30.09 in 10.0 mi West 6.9 mph - N/A   Clear
10:54 AM 66.9 °F 52.0 °F 59% 30.09 in 10.0 mi NW 6.9 mph - N/A   Clear
11:54 AM 69.1 °F 53.1 °F 57% 30.10 in 10.0 mi North - - N/A   Clear
12:54 PM 72.0 °F 53.1 °F 51% 30.09 in 10.0 mi NNW 4.6 mph - N/A   Clear
1:54 PM 73.0 °F 52.0 °F 48% 30.07 in 10.0 mi Variable 4.6 mph - N/A   Clear
2:54 PM 73.9 °F 51.1 °F 45% 30.06 in 10.0 mi Variable 4.6 mph - N/A   Clear
3:54 PM 75.0 °F 52.0 °F 44% 30.05 in 10.0 mi WSW 3.5 mph - N/A   Clear
4:54 PM 75.0 °F 51.1 °F 43% 30.04 in 10.0 mi WNW 6.9 mph - N/A   Clear
5:54 PM 73.0 °F 52.0 °F 48% 30.04 in 10.0 mi WSW 5.8 mph - N/A   Clear
6:54 PM 69.1 °F 55.0 °F 61% 30.04 in 10.0 mi Calm Calm - N/A   Clear
7:54 PM 63.0 °F 57.0 °F 81% 30.05 in 10.0 mi Calm Calm - 0.00 in   Clear
8:54 PM 62.1 °F 57.0 °F 84% 30.06 in 10.0 mi Calm Calm - N/A   Clear
9:54 PM 62.1 °F 57.0 °F 84% 30.05 in 10.0 mi Calm Calm - N/A   Clear
10:54 PM 60.1 °F 55.9 °F 86% 30.05 in 10.0 mi Calm Calm - N/A   Clear
11:54 PM 59.0 °F 55.9 °F 90% 30.04 in 10.0 mi Calm Calm - N/A   Clear